This is the latest recevied weather packets stored in our database for station/object VE3DVC. If no packets are shown the sender has not sent any weather packets the latest 10 day(s).
| Time | Temp. | Humidity | Pressure | Rain* | Wind** | Luminosity | Snow |
|---|---|---|---|---|---|---|---|
| 1777495776 | 10° C | 90% | 1008.1 hPa | 0 mm | - | - | - |
| 1777494517 | 10° C | 90% | 1008.3 hPa | 0 mm | - | - | - |
| 1777493796 | 10° C | 90% | 1008.4 hPa | 0 mm | - | - | - |
| 1777493079 | 10° C | 90% | 1008.5 hPa | 0 mm | - | - | - |
| 1777492356 | 10° C | 90% | 1008.8 hPa | 0 mm | - | - | - |
| 1777491637 | 10° C | 90% | 1008.7 hPa | 0 mm | - | - | - |
| 1777490917 | 10° C | 91% | 1008.5 hPa | 0 mm | - | - | - |
| 1777490196 | 10° C | 91% | 1008.7 hPa | 0 mm | - | - | - |
| 1777489476 | 9.44° C | 91% | 1008.7 hPa | 0 mm | - | - | - |
| 1777488757 | 9.44° C | 91% | 1009 hPa | 0 mm | - | - | - |
| 1777488036 | 9.44° C | 91% | 1009.2 hPa | 0 mm | - | - | - |
| 1777487316 | 9.44° C | 92% | 1009.4 hPa | 0 mm | - | - | - |
| 1777485450 | 9.44° C | 92% | 1009.1 hPa | 0.25 mm | - | - | - |
| 1777484730 | 9.44° C | 92% | 1009.4 hPa | 0.25 mm | - | - | - |
| 1777484010 | 9.44° C | 92% | 1009.4 hPa | 0.51 mm | - | - | - |
| 1777483290 | 9.44° C | 92% | 1009.6 hPa | 0.51 mm | - | - | - |
| 1777482570 | 9.44° C | 91% | 1009.7 hPa | 0.51 mm | - | - | - |
| 1777481850 | 9.44° C | 91% | 1009.8 hPa | 0.25 mm | - | - | - |
| 1777481131 | 9.44° C | 91% | 1009.9 hPa | 0.25 mm | - | - | - |
| 1777480410 | 9.44° C | 91% | 1009.9 hPa | 0 mm | - | - | - |
| 1777479690 | 10° C | 90% | 1010.1 hPa | 0 mm | - | - | - |
| 1777478970 | 10° C | 89% | 1010.2 hPa | 0 mm | - | - | - |
| 1777478250 | 10° C | 90% | 1010.3 hPa | 0 mm | - | - | - |
| 1777477530 | 10° C | 90% | 1010.1 hPa | 0.51 mm | - | - | - |
| 1777476810 | 10° C | 90% | 1010.1 hPa | 0.76 mm | - | - | - |
* Rain latest hour (hover to see other rain measurements)
** Current wind speed in m/s (hover to see current wind gust speed)